Preview of NWS' New Version of Forecast
This preview is not operational and should not be used for support decisions.

Regional Weather Roundup (RWR)

Issued by Gray - Portland, ME (GYX)

                            
000
ASUS41 KGYX 191305
RWRGYX
WEATHER ROUNDUP FOR MAINE AND NEW HAMPSHIRE
NATIONAL WEATHER SERVICE GRAY ME
800 AM EST TUE FEB 19 2019

MEZ002-005-006-010-012-015-018-020-021-024-026-027-029-191400-
MAINE
  
CITY           SKY/WX    TMP DP  RH WIND       PRES   REMARKS
PORTLAND       FAIR      12   0  58 W8        30.40R                  
SANFORD        FAIR      15   3  59 NW8       30.40R                  
BAR HARBOR     FAIR       8  -4  58 N7G16     30.35R                  
WISCASSET      FAIR      12  -1  56 NW8       30.40R                  
ROCKLAND       FAIR       9  -1  64 NW8       30.37R                  
FRYEBURG       FAIR       1  -5  75 CALM      30.39R                  
LEWISTONAUBURN FAIR      10  -1  61 NW14      30.38R WCI  -6          
AUGUSTA        FAIR       9  -4  55 NW15G21   30.37R WCI  -8          
WATERVILLE       N/A    N/A N/A N/A MISG        N/A                   
BANGOR         FAIR       6  -5  60 NW7       30.35R                  
GREENVILLE       N/A     -1 -15  51 NW17G31   30.19R WCI -22          
MILLINOCKET    FAIR       2 -10  57 NW14G22   30.32R WCI -16          
HOULTON        NOT AVBL                                               
PRESQUE ISLE   FAIR       2  -7  66 NW9       30.25R                  
FRENCHVILLE    FAIR      -1 -12  59 NW12      30.17R WCI -18          
CARIBOU        FAIR       0 -11  59 NW14      30.22R WCI -19          
$$

NHZ002-005-008-009-011-012-014-191400-
NEW HAMPSHIRE
  
CITY           SKY/WX    TMP DP  RH WIND       PRES   REMARKS
PORTSMOUTH     MOSUNNY   15   0  52 NW8       30.40R                  
ROCHESTER      FAIR      13   1  59 NW15      30.37R WCI  -3          
NASHUA         FAIR      14   4  64 NW9       30.45R                  
MANCHESTER     FAIR      15   1  53 N13       30.43R WCI   1          
CONCORD        FAIR      11   1  64 NW12      30.44R WCI  -3          
LACONIA        FAIR      13   1  59 W9        30.42R                  
PLYMOUTH       FAIR      10  -1  61 W10G17    30.42R WCI  -4          
BERLIN         FAIR       5  -4  66 NW7       30.35R                  
WHITEFIELD     FAIR       2  -2  83 CALM      30.40R                  
JAFFREY        FAIR      12   3  67 VRB5      30.37R                  
KEENE          FAIR       7   4  87 CALM      30.46R FOG              
LEBANON        FAIR      -3  -7  82 CALM      30.46R                  
MT WASHINGTON  PTSUNNY   -9 -17  70 NW68G77     N/A  WCI -48          
$$

VTZ005-007-008-191400-
VERMONT
  
CITY           SKY/WX    TMP DP  RH WIND       PRES   REMARKS
ST JOHNSBURY     N/A      7  -1  70 MISG      30.44R                  
MONTPELIER     HAZE       4  -1  80 NW9       30.45R VSB 1            
BURLINGTON     FAIR       5  -1  76 CALM      30.53R                  
$$

MAZ007-012-024-CTZ003-RIZ002-NYZ038-NYZ072-191400-
SOUTHERN NEW ENGLAND AND NY
  
CITY           SKY/WX    TMP DP  RH WIND       PRES   REMARKS
BOSTON         FAIR      19   4  51 NW15      30.44R WCI   5          
WORCESTER      FAIR      11   2  67 NW15      30.37R WCI  -5          
NANTUCKET      FAIR      21   9  59 NW17G28   30.42R WCI   7          
PROVIDENCE     FAIR      20   5  52 NW9       30.46R                  
HARTFORD       FAIR      16   3  56 W3        30.49R                  
ALBANY         FAIR      10   2  69 W3        30.55R                  
NEW YORK CITY  FAIR      25  11  55 NW18G25   30.53R WCI  11          
$$

ANZ081-ANZ082-ANZ150-NHZ014-MEZ023>029-191400-
COASTAL MARINE OBSERVATIONS
  
STATION/POSITION TIME  TEMP    WIND        PRES    WAVE
                       AIR SEA DIR/SP/G            HT/PER
                 (UTC) (F)     (DEG/KT/KT) (MB)    (FT/S)
MOUNT DESERT ROC 1200   13     300/ 25/ 29 1026.1R
MATINICUS ROCK   1200   14     310/ 20/ 22 1026.6R
ISLE OF SHOALS   1200   16     300/ 13/ 16 1028.5R
JEFFREYS LEDGE   1238      40                N/A     5/ 5
$$

.............KEY..............
   WCI - WIND CHILL
   TC  - TEMPERATURE IN CELSIUS
   VSB - VISIBILITY IN MILES
   HX  - HEAT INDEX
   FAIR- INDICATES FEW OR NO CLOUDS BELOW 12,000 FT, WITH NO 
         SIGNIFICANT WEATHER AND/OR OBSTRUCTIONS TO VISIBILITY.